O3b星座 FM20星 (O3B FM20)

导读

O3B FM20是中圆地球轨道卫星,归属O3B星座,由O3B在2019年4月4日发射。该卫星主要提供互联网骨干传输服务,填补偏远地区通信覆盖空白,可满足海事、航空移动平台及地面偏远区域的高速通信需求,助力提升全球互联互通水平。

基本信息
目录编号:
44112
目录名称:
O3B FM20
国际标识:
2019-020A
轨道中心:
EARTH
卫星名称:
O3b星座 FM20星
卫星全名:
O3b星座 FM20星 (O3B FM20)
卫星状态:
在轨 (已飞行2634 天)
发射日期:
2019-04-04 UTC
国别 :
(O3B)
星等 :
--
轨道信息
数据来源 国际轨道数据 AOE轨道数据
星历时间 2026-06-20T13:02:55+0800
18小时前
查看轨道信息
2026-06-19T17:00:00+0800
1天前
查看轨道信息
半长轴 14444.028km 14444.026km
偏心率 0.0002429 0.0002424
轨道倾角 0.052° 0.052°
近地点辐角 82.648° 78.053°
升交点赤经 358.147° 358.930°
平近点角 279.230° 218.572°
近地点 8062.382km 8062.387km
远地点 8069.4km 8069.391km
周期 287.933分钟 287.933分钟
每日圈数 5.001155 5.001156
详细信息
平衡模式:
三轴稳定
覆盖范围:
全球
运营商:
欧洲卫星公司
运营商所在国:
卢森堡
制造商(研发单位):
阿莱尼亚宇航公司
制造商所在国:
意大利
使用方式:
暂无
卫星简介
O3b卫星星座分为O3b FM卫星星座和O3b mPOWER卫星星座,前者是由阿莱尼亚宇航公司制造的第一代O3b卫星星座,后者是由波音公司制造的第二代O3b卫星星座。O3b卫星初始星座运行于赤道圆轨道,轨道高度8062公里,能够覆盖全球南北纬45°之间所有地方,在南、北纬45°~62°范围内也能提供一定的服务。该卫星仍在工作。
2D轨道图
3D轨道图
轨道高度分析图
轨道倾角分析图
轨道综合分析图
查看轨道综合分析图